Connaught Arpt, Ireland

5:42 AM GMT on March 25, 2017 (GMT +0000)
Connaught Arpt

Weather History for 03973 - September, 2013

Change the Weather History Date:

Wednesday, September 4, 2013

  Actual Average Record
Temperature  
Mean Temperature 58 °F -  
Max Temperature 67 °F - - ()
Min Temperature 48 °F - - ()
Degree Days  
Heating Degree Days 8    
Growing Degree Days 8 (Base 50)    
Moisture  
Dew Point 53 °F    
Average Humidity 83    
Maximum Humidity 100    
Minimum Humidity 60    
Precipitation  
Precipitation 0.08 in - - ()
Sea Level Pressure  
Sea Level Pressure 29.99 in    
Wind  
Wind Speed 12 mph ()    
Max Wind Speed 20 mph    
Max Gust Speed 30 mph    
Visibility 6.2 miles    
Events Rain    
T = Trace of Precipitation, MM = Missing Value Source: Averaged Metar Reports

Daily Weather History Graph

Daily Weather History Graph

Search for Another Location

Airport or City:

Trip Planner

Search our weather history database for the weather conditions in past years. The results will help you decide how hot, cold, wet, or windy it might be!

Date:

Astronomy

Sep. 04, 2013 Rise Set
Actual Time 6:49 AM IST 8:18 PM IST
Civil Twilight 6:12 AM IST 8:54 PM IST
Nautical Twilight 5:27 AM IST 9:39 PM IST
Astronomical Twilight 4:36 AM IST 10:29 PM IST
Moon 5:46 AM IST (9/4) 7:26 PM IST (9/4)
Length of Visible Light 14h 42m
Length of Day
13h 29m
Waning Crescent, 1% of the Moon is Illuminated
Sep 4
Waning Crescent
Sep 5
New
Sep 12
First Quarter
Sep 19
Full
Sep 27
Last Quarter

Hourly Weather History & Observations

Time (IST) Temp. Dew Point Humidity Pressure Visibility Wind Dir Wind Speed Gust Speed Precip Events Conditions
1:00 AM 53 °F 52 °F 97% 30.16 in - South 8.9 mph - -  
7:00 AM 49 °F 48 °F 95% 30.06 in 19 mi South 13.4 mph - -   Scattered Clouds
7:00 AM 50.0 °F 48.2 °F 94% 30.04 in 6.2 mi South 13.8 mph - N/A   Scattered Clouds
7:30 AM 50.0 °F 48.2 °F 94% 30.04 in 6.2 mi South 10.4 mph - N/A   Partly Cloudy
8:00 AM 50.0 °F 48.2 °F 94% 30.04 in 6.2 mi SSE 10.4 mph - N/A   Mostly Cloudy
8:30 AM 50.0 °F 50.0 °F 100% 30.04 in 6.2 mi SSE 9.2 mph - N/A   Mostly Cloudy
9:00 AM 51.8 °F 50.0 °F 94% 30.01 in 6.2 mi South 13.8 mph - N/A   Mostly Cloudy
9:30 AM 53.6 °F 51.8 °F 94% 30.01 in 6.2 mi SSE 16.1 mph - N/A   Scattered Clouds
10:00 AM 55.4 °F 53.6 °F 94% 30.01 in 6.2 mi South 13.8 mph - N/A   Mostly Cloudy
10:30 AM 57.2 °F 53.6 °F 88% 30.01 in 6.2 mi South 17.3 mph - N/A   Scattered Clouds
11:00 AM 59.0 °F 53.6 °F 82% 30.01 in 6.2 mi SSW 16.1 mph - N/A   Mostly Cloudy
11:30 AM 59.0 °F 53.6 °F 82% 29.98 in 6.2 mi South 18.4 mph 29.9 mph N/A   Mostly Cloudy
12:00 PM 59.0 °F 53.6 °F 82% 30.01 in 6.2 mi SSW 16.1 mph - N/A   Mostly Cloudy
12:30 PM 60.8 °F 55.4 °F 82% 30.01 in 6.2 mi SSW 13.8 mph - N/A   Mostly Cloudy
1:00 PM 62 °F 54 °F 69% 29.98 in 28 mi SSW 15.7 mph - -   Mostly Cloudy
1:00 PM 62.6 °F 53.6 °F 72% 29.98 in 6.2 mi SSW 16.1 mph - N/A   Mostly Cloudy
1:30 PM 60.8 °F 53.6 °F 77% 29.98 in 6.2 mi South 16.1 mph - N/A   Mostly Cloudy
2:00 PM 62.6 °F 53.6 °F 72% 29.95 in 6.2 mi South 16.1 mph - N/A   Mostly Cloudy
2:30 PM 64.4 °F 53.6 °F 68% 29.95 in 6.2 mi South 17.3 mph - N/A   Mostly Cloudy
3:00 PM 66.2 °F 53.6 °F 64% 29.95 in 6.2 mi SSW 15.0 mph - N/A   Scattered Clouds
3:30 PM 66.2 °F 51.8 °F 60% 29.95 in 6.2 mi SSW 19.6 mph - N/A   Scattered Clouds
4:00 PM 64.4 °F 51.8 °F 64% 29.92 in 6.2 mi SSW 18.4 mph - N/A   Scattered Clouds
4:30 PM 66.2 °F 53.6 °F 64% 29.92 in 6.2 mi SSW 18.4 mph - N/A   Scattered Clouds
5:00 PM 64.4 °F 51.8 °F 64% 29.92 in 6.2 mi SSW 17.3 mph - N/A   Scattered Clouds
5:30 PM 64.4 °F 51.8 °F 64% 29.92 in 5.0 mi SW 15.0 mph - N/A   Mostly Cloudy
6:00 PM 59.0 °F 57.2 °F 94% 29.92 in 6.2 mi SW 13.8 mph - N/A Rain Light Rain
7:00 PM 57 °F 56 °F 97% 29.94 in 3 mi SSW 11.2 mph - - Rain Light Rain
7:00 PM 57.2 °F 57.2 °F 100% 29.92 in 3.1 mi SSW 10.4 mph - N/A Rain Light Rain
7:30 PM 53.6 °F 53.6 °F 100% 29.95 in 1.2 mi NNW 13.8 mph - N/A   Light Drizzle